Location: Ahausen
(50.4985°N, 8.2722°E)
Time: 11:10:00
(UTC+00:00)

Cosmos 1782 Rocket - Pass Details

Date: 18 September 2020
Orbit: 607 x 632 km, 82.5° (Epoch: 25 October)

Event Time Altitude Azimuth Distance (km) Brightness Sun altitude
Rises 18:43:06 0° 196° (SSW) 2,885 7.0 -11.8°
Reaches altitude 10° 18:45:19 10° 199° (SSW) 1,988 6.2 -12.1°
Maximum altitude 18:49:42 67° 282° (WNW) 682 4.0 -12.8°
Drops below altitude 10° 18:54:10 10° 6° (N) 2,019 6.4 -13.4°
Sets 18:56:26 0° 9° (N) 2,934 7.2 -13.8°
